This is the latest recevied weather packets stored in our database for station/object K6POO-1. If no packets are shown the sender has not sent any weather packets the latest 10 day(s).
| Time | Temp. | Humidity | Pressure | Rain* | Wind** | Luminosity | Snow |
|---|---|---|---|---|---|---|---|
| 1778075729 | 12.78° C | 85% | 1020.5 hPa | 0 mm | - | 41 W/m² | - |
| 1778075425 | 12.78° C | 85% | 1020.6 hPa | 0 mm | - | 38 W/m² | - |
| 1778075121 | 12.78° C | 86% | 1020.4 hPa | 0 mm | - | 30 W/m² | - |
| 1778074818 | 12.78° C | 86% | 1020.4 hPa | 0 mm | - | 22 W/m² | - |
| 1778074515 | 12.78° C | 86% | 1020.4 hPa | 0 mm | - | 18 W/m² | - |
| 1778074212 | 12.78° C | 85% | 1020.5 hPa | 0 mm | - | 15 W/m² | - |
| 1778073909 | 12.78° C | 85% | 1020.1 hPa | 0 mm | - | 11 W/m² | - |
| 1778073606 | 12.78° C | 84% | 1020.1 hPa | 0 mm | - | 8 W/m² | - |
| 1778073303 | 12.78° C | 84% | 1020.2 hPa | 0 mm | - | 5 W/m² | - |
| 1778073000 | 12.78° C | 84% | 1020 hPa | 0 mm | - | 3 W/m² | - |
| 1778072696 | 12.78° C | 84% | 1020.1 hPa | 0 mm | - | 2 W/m² | - |
| 1778072394 | 12.78° C | 84% | 1020 hPa | 0 mm | - | 1 W/m² | - |
| 1778072092 | 12.78° C | 85% | 1020 hPa | 0 mm | - | 0 W/m² | - |
| 1778071790 | 12.78° C | 85% | 1019.9 hPa | 0 mm | - | 0 W/m² | - |
| 1778071487 | 12.78° C | 85% | 1019.7 hPa | 0 mm | - | 0 W/m² | - |
| 1778071185 | 12.78° C | 85% | 1020 hPa | 0 mm | - | 0 W/m² | - |
| 1778070883 | 12.78° C | 86% | 1019.8 hPa | 0 mm | - | 0 W/m² | - |
| 1778070580 | 12.78° C | 86% | 1019.8 hPa | 0 mm | - | 0 W/m² | - |
| 1778070277 | 12.78° C | 86% | 1019.9 hPa | 0 mm | - | 0 W/m² | - |
| 1778069975 | 12.78° C | 86% | 1019.8 hPa | 0 mm | - | 0 W/m² | - |
| 1778069672 | 12.22° C | 86% | 1020 hPa | 0 mm | - | 0 W/m² | - |
| 1778069369 | 12.22° C | 87% | 1019.8 hPa | 0 mm | - | 0 W/m² | - |
| 1778069066 | 12.22° C | 87% | 1019.9 hPa | 0 mm | - | 0 W/m² | - |
| 1778068764 | 12.22° C | 87% | 1019.8 hPa | 0 mm | - | 0 W/m² | - |
| 1778068461 | 12.22° C | 87% | 1020 hPa | 0 mm | - | 0 W/m² | - |
* Rain latest hour (hover to see other rain measurements)
** Current wind speed in m/s (hover to see current wind gust speed)